Regional Weather Roundup
Issued by NWS Grand Forks, ND

Home | Current Version | Previous Version | Text Only | Print | Product List | Glossary Off
Versions: 1 2 3 4 5 6 7 8 9 10 11 12 13 14 15 16 17 18 19 20 21 22 23 24 25 26 27 28 29 30 31 32 33 34 35 36 37 38 39 40 41 42 43 44 45 46 47 48 49 50

000
ASUS43 KFGF 260831
RWRFGF
PRAIRIE TO PINES  WEATHER ROUNDUP
NATIONAL WEATHER SERVICE EASTERN NORTH DAKOTA/GRAND FORKS ND
200 AM CST FRI DEC 26 2014

 **SATELLITE DATA USED TO AUGMENT SKY COVER AT AUTOMATED STATIONS**
 *****  WEATHER ACROSS EASTERN NORTH DAKOTA  *****

CITY           SKY/WX    TMP DP  RH WIND       PRES   REMARKS
GRAND FORKS    CLOUDY    25  20  81 N12       30.03S WCI  14
GRAND FRKS AFB CLOUDY    25  23  94 N13       30.04S WCI  13
GRAND FRKS NWS   N/A     25 N/A N/A N10         N/A  WCI  15
DEVILS LAKE    CLOUDY    21  16  79 NW8       30.04R WCI  12
FARGO          CLOUDY    26  20  77 N15       30.01R WCI  14
WAHPETON ARPT  CLOUDY    27  23  86 N15       29.99R WCI  15
$$

 ***** WEATHER ACROSS CENTRAL AND WESTERN NORTH DAKOTA  *****

CITY           SKY/WX    TMP DP  RH WIND       PRES   REMARKS
BISMARCK       CLOUDY    24  19  81 NW10      30.05R WCI  14
MINOT          PTCLDY     6   1  80 NW15      30.08S WCI -12
JAMESTOWN      CLOUDY    25  20  81 N9        30.00R WCI  15
MINOT AFB      CLEAR      5   3  90 NW15      30.09R WCI -13
GARRISON         N/A     12   7  80 NW21      30.06R WCI  -7
WILLISTON      CLOUDY    14   9  80 NW9       30.11S WCI   2
DICKINSON      CLOUDY    19  13  77 NW10      30.02S WCI   7
HETTINGER      CLOUDY    20  15  81 NW10      30.03R WCI   9
$$

 *****  OTHER AIRPORT OBSERVATIONS IN OUR AREA  *****

CITY           SKY/WX    TMP DP  RH WIND       PRES   REMARKS
WALHALLA         N/A     23  21  93 NW9       30.06R WCI  13
GRAFTON AIRPOR NOT AVBL
VALLEY CITY AR CLOUDY    23  23 100 NE12      30.01R WCI  12
CANDO          CLOUDY    21  18  86 N9        30.04S WCI  11
CAVALIER APRT  CLOUDY    25  18  74 N8        30.05S WCI  16
GWINNER        CLOUDY    28  28 100 N13       30.01R WCI  18
ROLLA          CLOUDY    16  16 100 NW13      30.03S WCI   2
 ***** THE ABOVE OBSERVATIONS ARE NON NWS ARE NOT QUALITY
       CONTROLLED AND MAY MIS-REPORT RAIN FOR SNOW...
$$

  *****  WEATHER ACROSS NORTHERN MINNESOTA  *****

CITY           SKY/WX    TMP DP  RH WIND       PRES   REMARKS
FLAG ISLAND    CLOUDY    23  19  86 NW13      29.98R WCI  11
WARROAD        CLOUDY    25  19  80 NW6       30.00R WCI  18
ROSEAU         CLOUDY    25  19  80 NW3       30.00R
HALLOCK        CLOUDY    25  21  86 N7        30.04R WCI  17
THF RVR FALLS  CLOUDY    25  19  80 N8        30.01R WCI  16
BAUDETTE       CLOUDY    23  19  85 NW9       29.97S FOG     WCI  13
WASKISH        CLOUDY    25  21  86 CALM      29.98R
CROOKSTON      CLOUDY    25  21  86 N13       30.04R WCI  13
STEPHEN NDAWN    N/A     25  16  68 N9          N/A  WCI  15
GREENBUSH NDAW   N/A     23  21  93 NW8         N/A  WCI  14
$$
  *****  WEATHER ACROSS CENTRAL AND WEST MINNESOTA  *****

CITY           SKY/WX    TMP DP  RH WIND       PRES   REMARKS
FOSSTON        CLOUDY    23  21  93 N8        29.99R WCI  14
BEMIDJI        CLOUDY    24  20  86 N6        29.96R WCI  17
PARK RAPIDS    CLOUDY    26  21  81 N10       29.93S WCI  16
ELBOW LAKE     CLOUDY    25  23  91 N12G17    29.95R WCI  15
WADENA         CLOUDY    25  21  86 N10       29.94R WCI  15
DETROIT LAKES  CLOUDY    27  25  93 NE8       29.97R WCI  18
MOORHEAD       CLOUDY    25  25 100 N15       30.02R WCI  12
FERGUS FALLS   CLOUDY    27  19  74 N9G16     29.99R WCI  17
MORRIS MN      LGT SNOW  27  25  93 N13       29.93R WCI  16
STAPLES        CLOUDY    25  21  86 N10       29.93R WCI  15
$$
  *****  WEATHER ELSEWHERE ACROSS MINNESOTA  *****

CITY           SKY/WX    TMP DP  RH WIND       PRES   REMARKS
DULUTH         CLOUDY    30  23  75 N9        29.88F WCI  22
INTRNTL FALLS  CLOUDY    26  23  88 NW6       29.94R WCI  19
ELY            CLOUDY    27  21  80 CALM      29.92R
CLOQUET        CLOUDY    28  25  86 N7        29.90R WCI  21
WHEATON        CLOUDY    25  21  86 N14       29.99R WCI  13
BRAINERD       CLOUDY    27  22  81 N10       29.92S WCI  17
HIBBING        CLOUDY    28  21  75 N8        29.93R WCI  20
ALEXANDRIA     CLOUDY    26  23  88 N15       29.92R WCI  14
SAINT CLOUD    CLOUDY    32  27  81 N7        29.90R
MINNEAPOLIS    CLOUDY    32  29  88 N7        29.87R
$$

  *****  WEATHER ACROSS SOUTH DAKOTA  *****

CITY           SKY/WX    TMP DP  RH WIND       PRES   REMARKS
SIOUX FALLS    CLOUDY    29  26  89 N12       29.88R WCI  19
BROOKINGS      NOT AVBL
WATERTOWN      CLOUDY    24  21  88 N13       29.91R WCI  12
HURON          LGT SNOW  26  23  88 N14       29.96R FOG     WCI  14
SISSETON         N/A     25  24  96 N16       29.96R WCI  12
ABERDEEN       CLOUDY    26  23  88 N13       30.00R WCI  15
MITCHELL       CLOUDY    27  24  89 N13       29.95R WCI  16
PIERRE         CLOUDY    26  21  81 N15       30.00R WCI  14
MOBRIDGE       CLOUDY    26  21  81 N12       30.00R WCI  16
RAPID CITY     CLOUDY    21  17  84 N16       29.99R WCI   7
$$

  *****  SOME WEATHER IN NEARBY STATES *****

CITY           SKY/WX    TMP DP  RH WIND       PRES   REMARKS
GLASGOW MT     CLOUDY    18  13  80 SE14      30.06S WCI   4
GREAT FALLS MT MOCLDY    17  11  77 SW9       29.94S WCI   6
CHEYENNE WY    CLOUDY    13  10  88 NE7       29.80F FOG     WCI   3
SCOTTSBLUFF NE LGT SNOW  21  18  88 N7        29.94F FOG     WCI  12
OMAHA NE       MOCLDY    32  30  92 N13       29.80R WCI  22
DES MOINES IA  PTCLDY    38  30  73 S9        29.79R
DAVENPORT IA   CLOUDY    42  32  67 S20G28    29.90S
CHICAGO IL     CLOUDY    38  32  79 S12       30.00S
EAU CLAIRE WI  CLOUDY    29  27  92 NE6       29.85S WCI  23
LA CROSSE WI   PTCLDY    29  28  96 E3        29.85R
$$

  *****  SOME NATIONAL WEATHER *****

CITY           SKY/WX    TMP DP  RH WIND       PRES   REMARKS
LA GUARDIA NY  CLEAR     44  28  53 W12       30.16R
RALEIGH NC     PTCLDY    32  28  85 CALM      30.26S
ATLANTA GA     PTCLDY    37  32  82 CALM      30.25R
NEW ORLEANS LA PTCLDY    46  41  82 CALM      30.18F
OKLAHOMA CITY  MOCLDY    49  31  49 S20G25    29.83R
ALBUQUERQUE NM LGT SNOW  33  32  96 SE12      29.74R FOG     WCI  24
SALT LAKE CITY CLOUDY    27  23  85 W3        29.83S
LOS ANGELES CA CLEAR     52  22  30 N9        29.93S
BOISE ID       CLEAR     28  20  71 NW12      30.06F WCI  18
SEATTLE WA     CLOUDY    38  36  92 S7        30.28F
$$

*** WEATHER ACROSS MANITOBA...SASKATCHEWAN AND ONTARIO ***
                ***ONTARIO***

CITY           SKY/WX    TMP DP  RH WIND       PRES   REMARKS
GERALDTON      CLOUDY    28  28 100 W5        29.85R WCI  23
THUNDER BAY    CLOUDY    27  27 100 W5        29.93R WCI  21
SIOUX LOOKOUT  CLOUDY    27  25  93 NW7       29.91R WCI  19
TORONTO        CLOUDY    37  30  75 W17       30.13R
BIG TROUT LK   FLURRIES  18  18 100 NW7       29.86R WCI   8
PICKLE LAKE    NOT AVBL
DRYDEN         FLURRIES  23  23 100 NW8       29.92S WCI  14
KENORA         FLURRIES  21  19  93 NW9       29.95S WCI  11
$$
                *** MANITOBA***

CITY           SKY/WX    TMP DP  RH WIND       PRES   REMARKS
BRANDON        CRYSTALS   1  -2  85 W14       30.09R WCI -17
DAUPHIN        FLURRIES   3   0  85 NE3       30.14R
ISLAND LAKE    NOT AVBL
PILOT MOUND      N/A     18  16  93 NW10        N/A  WCI   6
THE PAS        CLEAR     -9 -13  84 NW12      30.15R WCI -29
THOMPSON       CLEAR    -17 -22  76 W5        30.06  WCI -29
WINNIPEG       FLURRIES  19  16  86 NE10      30.07  WCI   8
CHURCHILL      LGT SNOW  -6  -9  84 NW18      29.97R BLWGSNOWWCI -29
GILLAM         FLURRIES   1  -4  78 NW12      29.98R WCI -15
$$
                ***SASKATCHEWAN***

CITY           SKY/WX    TMP DP  RH WIND       PRES   REMARKS
ESTEVAN        FLURRIES   9   3  78 W15G22    30.10S WCI  -8
KINDERSLEY     FLURRIES   9   5  85 VRB2      30.05
LLOYDMINSTER   CLOUDY     7   5  92 SE2       30.06S
PRINCE ALBERT  PTCLDY   -17 -20  83 W3        30.17R
REGINA         CLOUDY     0  -4  85 N8        30.12R WCI -15
YORKTON        CLOUDY    -9 -13  84 NW7       30.11  WCI -24
N. BATTLEFORD  CLOUDY     5   1  85 N5        30.14R WCI  -4
LA RONGE       CLEAR    -17 -22  76 W7        30.15S WCI -33
SASKATOON      CLOUDY     0  -4  85 NE3       30.16R
SWIFT CURRENT  LGT SNOW   5   3  92 E7        30.00S WCI  -7
$$
NOTE: THESE ARE AUTOMATED STATIONS WITH LIMITED QUALITY CONTROL
      "FAIR" INDICATES FEW OR NO CLOUDS BELOW 12,000 FEET WITH NO
      SIGNIFICANT WEATHER AND/OR OBSTRUCTIONS TO VISIBILITY.
      SKY/WX - SKY CONDITION AND SIGNIFICANT WEATHER.
      TMP - AIR TEMPERATURE.    DP   - DEWPOINT TEMPERATURE.
      RH  - RELATIVE HUMIDITY.  PRES - PRESSURE.
      HX  - HEAT INDEX.         WCI  - WIND CHILL INDEX.
$


USA.gov is the U.S. government's official web portal to all federal, state and local government web resources and services.